Stations météo

Publicité
Beauvais, France (7055): Température de l'air & dewpoint: 17.07.2019 04:00:00 - 23.07.2019 04:00:00 (CEST)Beauvais, France (7055): Température de l'air 5cm: 17.07.2019 04:00:00 - 23.07.2019 04:00:00 (CEST)Beauvais, France (7055): Température de l'air -20cm & Température de l'air -100cm: 17.07.2019 04:00:00 - 23.07.2019 04:00:00 (CEST)Beauvais, France (7055): Vitesse du vent & gusts: 17.07.2019 04:00:00 - 23.07.2019 04:00:00 (CEST)Beauvais, France (7055): Direction du vent: 17.07.2019 04:00:00 - 23.07.2019 04:00:00 (CEST)Beauvais, France (7055): reduced air pressure: 17.07.2019 04:00:00 - 23.07.2019 04:00:00 (CEST)Beauvais, France (7055): visibility: 17.07.2019 04:00:00 - 23.07.2019 04:00:00 (CEST)Beauvais, France (7055): Ensoleillement: 17.07.2019 04:00:00 - 23.07.2019 04:00:00 (CEST)Beauvais, France (7055): Quantités de précipitations: 17.07.2019 04:00:00 - 23.07.2019 04:00:00 (CEST)
Date & Time tt [°C] td [°C] tt 5cm [°C] tt -20cm [°C] tt -100cm [°C] ff [km/h] ff [knt] fx [km/h] fx [knt] dd ppp [hPa] vv [km] sd [min] rr [mm]
23.07.2019 04:00:00 14,1 12,0 10,9 19,3 17,1 8 4 10 6 NW 1021,5 20 0 0,0
23.07.2019 03:00:00 15,2 13,0 11,0 19,3 17,1 9 5 10 5 NW 1021,6 29 0 0,0
23.07.2019 02:00:00 16,2 12,9 11,4 19,3 17,1 7 4 8 5 WNW 1021,6 32 0 0,0
23.07.2019 01:00:00 17,3 12,8 12,5 19,2 17,1 3 2 10 6 WNW 1021,7 31 0 0,0
23.07.2019 00:00:00 19,3 13,7 14,7 19,2 17,1 5 3 18 10 WNW 1021,7 19 0 0,0
22.07.2019 23:00:00 21,9 14,3 19,8 19,1 17,1 14 8 31 17 N 1021,7 23 0 0,0
22.07.2019 22:00:00 24,0 14,4 22,1 19,0 17,1 14 8 31 17 N 1021,3 25 0 0,0
22.07.2019 21:00:00 28,1 13,2 25,8 19,0 17,0 6 3 13 7 SE 1021,0 16 40 0,0
22.07.2019 20:00:00 30,1 12,1 30,7 18,9 17,1 8 4 18 10 SE 1020,9 31 60 0,0
22.07.2019 19:00:00 30,6 12,9 35,8 18,8 17,1 6 4 18 10 SE 1020,9 19 60 0,0
22.07.2019 18:00:00 30,4 12,8 37,7 18,8 17,1 9 5 18 10 E 1021,4 20 60 0,0
22.07.2019 17:00:00 30,4 12,3 39,2 18,7 17,0 10 5 18 10 SE 1022,0 20 60 0,0
22.07.2019 16:00:00 30,7 13,0 42,0 18,7 17,1 6 3 13 7 WSW 1022,3 20 60 0,0
22.07.2019 15:00:00 29,2 12,2 41,1 18,7 17,0 4 2 18 10 NE 1022,9 19 60 0,0
22.07.2019 14:00:00 28,2 13,3 42,8 18,7 17,1 6 3 17 9 NNW 1023,6 36 60 0,0
22.07.2019 13:00:00 27,4 13,3 40,3 18,7 17,0 6 3 16 8 E 1024,0 55 60 0,0
22.07.2019 12:00:00 26,5 14,3 37,7 18,8 17,0 4 2 11 6 N 1024,2 50 60 0,0
22.07.2019 11:00:00 25,1 13,6 28,6 18,8 17,1 3 2 16 9 SW 1024,3 20 60 0,0
22.07.2019 10:00:00 22,4 12,9 24,5 18,9 17,0 9 5 14 8 SE 1024,6 26 60 0,0
22.07.2019 09:00:00 20,2 13,6 18,1 18,9 17,0 4 2 6 4 SE 1024,7 20 60 0,0
22.07.2019 08:00:00 14,9 12,4 10,8 19,0 17,0 0 0 5 3 N 1024,6 18 60 0,0
22.07.2019 07:00:00 11,1 10,3 7,1 19,0 17,0 3 1 6 3 NNW 1024,8 23 5 0,0
22.07.2019 06:00:00 10,0 8,4 7,3 19,1 17,0 3 2 7 4 N 1024,6 41 0 0,0
22.07.2019 05:00:00 10,8 9,1 7,4 19,1 17,0 2 1 4 2 NE 1024,6 47 0 0,0
22.07.2019 04:00:00 11,1 9,0 8,0 19,1 17,0 3 2 5 3 N 1024,6 50 0 0,0
22.07.2019 03:00:00 11,7 9,4 8,5 19,1 17,0 0 0 10 5 N 1024,7 53 0 0,0
22.07.2019 02:00:00 12,7 9,9 9,3 19,1 17,0 7 4 9 5 NNW 1024,7 56 0 0,0
22.07.2019 01:00:00 13,8 10,2 10,0 19,0 17,0 5 3 11 6 WNW 1024,6 56 0 0,0
22.07.2019 00:00:00 15,2 10,8 11,2 19,0 17,0 9 5 11 6 NW 1024,5 53 0 0,0
21.07.2019 23:00:00 17,9 11,2 14,6 19,0 17,0 8 5 21 12 N 1024,0 54 0 0,0
21.07.2019 22:00:00 19,9 11,6 18,0 18,9 17,0 14 7 24 13 N 1023,4 20 0 0,0
21.07.2019 21:00:00 22,8 12,1 20,1 18,9 17,0 11 6 23 12 N 1022,8 54 15 0,0
21.07.2019 20:00:00 25,2 11,4 25,3 18,8 17,0 10 5 21 11 WNW 1022,3 55 27 0,0
21.07.2019 19:00:00 25,3 11,1 29,4 18,8 17,0 11 6 21 11 WNW 1022,3 58 52 0,0
21.07.2019 18:00:00 25,4 11,6 29,9 18,7 17,0 11 6 21 11 W 1022,4 20 9 0,0
21.07.2019 17:00:00 25,7 12,5 30,9 18,7 17,0 10 5 23 12 W 1022,3 19 24 0,0
21.07.2019 16:00:00 24,5 12,8 31,4 18,7 17,0 11 6 23 12 NW 1022,3 47 5 0,0
21.07.2019 15:00:00 24,6 12,5 35,5 18,7 17,0 11 6 22 12 NW 1022,4 39 53 0,0
21.07.2019 14:00:00 24,3 12,9 36,2 18,7 17,0 9 5 22 12 W 1022,6 20 54 0,0
21.07.2019 13:00:00 22,8 13,0 34,5 18,7 17,0 9 5 27 14 W 1022,8 20 60 0,0
21.07.2019 12:00:00 21,7 12,5 30,3 18,8 17,0 9 5 23 12 SW 1022,8 20 48 0,0
21.07.2019 11:00:00 20,8 13,0 27,5 18,8 16,9 10 5 21 12 W 1022,6 33 57 0,0
21.07.2019 10:00:00 19,1 13,5 22,5 18,8 16,9 9 5 27 15 W 1022,1 10 60 0,0
21.07.2019 09:00:00 17,4 13,9 16,8 18,9 17,0 14 7 21 11 W 1022,0 19 60 0,0
21.07.2019 08:00:00 14,9 13,4 9,8 18,9 16,9 8 4 12 7 W 1021,4 20 60 0,0
21.07.2019 07:00:00 12,5 11,2 7,5 19,0 17,0 0 0 3 2 N 1021,0 34 6 0,0
21.07.2019 06:00:00 11,4 10,1 7,5 19,0 16,9 4 2 7 4 W 1020,5 20 0 0,0
21.07.2019 05:00:00 12,5 10,6 9,0 19,0 16,9 4 2 14 8 WNW 1020,1 43 0 0,0
21.07.2019 04:00:00 13,4 11,3 9,8 19,0 16,9 10 5 12 6 W 1019,5 49 0 0,0
21.07.2019 03:00:00 15,2 12,3 12,5 19,0 16,9 9 5 19 10 W 1019,2 31 0 0,0
21.07.2019 02:00:00 16,5 13,2 14,1 19,0 16,9 11 6 19 10 WNW 1018,7 28 0 0,0
21.07.2019 01:00:00 18,0 13,5 16,0 18,9 16,9 10 5 29 16 W 1018,0 35 0 0,0
21.07.2019 00:00:00 18,4 13,5 16,1 18,9 16,9 15 8 25 13 WNW 1017,4 34 0 0,0
20.07.2019 23:00:00 19,6 14,2 16,5 18,9 16,9 16 9 22 12 WNW 1016,6 37 0 0,0
20.07.2019 22:00:00 21,0 14,2 18,4 18,8 16,9 12 7 26 14 W 1015,7 40 0 0,0
20.07.2019 21:00:00 22,5 14,9 20,4 18,8 16,9 13 7 23 12 WNW 1014,7 38 21 0,0
20.07.2019 20:00:00 22,4 18,8 22,2 18,7 16,9 8 4 13 7 SW 1014,0 52 16 0,0
20.07.2019 19:00:00 22,6 19,4 22,2 18,7 16,9 8 5 16 9 SW 1013,5 57 9 0,0
20.07.2019 18:00:00 21,2 18,8 20,3 18,7 16,9 13 7 24 13 SW 1013,5 15 1 2,6
20.07.2019 17:00:00 24,0 16,5 27,5 18,6 16,9 13 7 26 14 W 1012,9 41 9 0,0
20.07.2019 16:00:00 24,3 17,3 25,9 18,6 16,9 15 8 33 18 WSW 1012,8 20 45 0,0
20.07.2019 15:00:00 22,0 18,6 19,3 18,6 16,9 21 11 54 29 W 1013,1 16 16 0,8
20.07.2019 14:00:00 26,0 15,4 30,3 18,6 16,9 29 15 51 28 WSW 1011,7 33 14 0,0
20.07.2019 13:00:00 26,7 15,1 32,2 18,6 16,9 28 15 44 24 SW 1010,9 36 43 0,0
20.07.2019 12:00:00 25,9 15,9 31,9 18,6 16,9 22 12 36 19 SW 1010,5 40 58 0,0
20.07.2019 11:00:00 23,5 15,8 25,5 18,7 16,9 14 8 23 13 SW 1010,4 20 12 0,0
20.07.2019 10:00:00 21,9 14,5 22,5 18,7 16,9 11 6 18 10 WSW 1010,5 18 10 0,0
20.07.2019 09:00:00 20,6 14,9 19,0 18,8 16,9 8 5 13 7 S 1010,1 19 7 0,0
20.07.2019 08:00:00 18,2 15,6 16,1 18,8 16,9 4 2 6 3 NNW 1010,0 28 5 0,0
20.07.2019 07:00:00 16,6 14,4 14,0 18,8 16,9 5 3 7 4 NNW 1010,1 27 7 0,0
20.07.2019 06:00:00 16,0 13,7 14,1 18,9 16,9 0 0 9 5 N 1009,9 30 0 0,0
20.07.2019 05:00:00 15,8 14,5 10,5 18,9 16,9 8 4 9 5 ESE 1010,2 30 0 0,0
20.07.2019 04:00:00 14,3 11,8 10,4 18,9 16,9 5 3 9 5 ESE 1010,5 32 0 0,0
20.07.2019 03:00:00 15,2 12,9 10,7 18,9 16,9 6 3 7 4 ESE 1010,8 32 0 0,0
20.07.2019 02:00:00 15,5 13,3 10,7 18,8 16,9 4 2 11 6 ESE 1011,2 29 0 0,0
20.07.2019 01:00:00 15,4 12,2 11,3 18,8 16,9 6 3 8 5 ESE 1011,3 31 0 0,0
20.07.2019 00:00:00 16,6 12,9 12,9 18,8 16,9 7 4 10 6 ESE 1011,8 20 0 0,0
19.07.2019 23:00:00 18,7 13,1 13,9 18,7 16,9 0 0 4 2 N 1012,2 45 0 0,0
19.07.2019 22:00:00 20,9 13,6 15,2 18,7 16,8 5 3 12 6 WSW 1012,4 18 0 0,0
19.07.2019 21:00:00 24,2 14,3 22,4 18,6 16,9 12 6 22 12 WSW 1012,3 45 3 0,0
19.07.2019 20:00:00 25,5 14,0 25,4 18,5 16,9 16 9 25 13 W 1012,4 44 31 0,0
19.07.2019 19:00:00 26,6 13,7 29,7 18,5 16,8 17 9 30 16 WSW 1012,6 46 34 0,0
19.07.2019 18:00:00 26,7 13,4 30,4 18,4 16,8 19 11 33 18 WSW 1012,9 46 5 0,0
19.07.2019 17:00:00 26,5 14,3 30,3 18,4 16,8 17 9 32 17 S 1013,0 48 44 0,0
19.07.2019 16:00:00 26,0 13,5 32,8 18,3 16,8 13 7 35 19 SW 1013,4 50 42 0,0
19.07.2019 15:00:00 25,6 12,8 35,9 18,3 16,9 17 9 32 18 SSW 1014,1 49 54 0,0
19.07.2019 14:00:00 24,9 12,8 30,4 18,3 16,8 19 10 40 21 SW 1014,6 59 40 0,0
19.07.2019 13:00:00 23,2 13,7 29,0 18,4 16,8 13 7 37 20 WSW 1015,1 20 31 0,0
19.07.2019 12:00:00 21,7 12,5 29,8 18,4 16,8 17 9 27 15 WSW 1015,3 53 52 0,0
19.07.2019 11:00:00 20,4 13,1 23,9 18,4 16,8 12 6 22 12 WSW 1015,7 20 46 0,0
19.07.2019 10:00:00 18,8 13,9 20,9 18,4 16,8 10 6 22 12 WSW 1015,9 20 33 0,0
19.07.2019 09:00:00 17,7 14,0 18,1 18,4 16,8 6 3 11 6 WSW 1016,0 20 48 0,0
19.07.2019 08:00:00 15,9 14,4 13,6 18,5 16,8 6 3 9 5 SSW 1015,6 18 60 0,0
19.07.2019 07:00:00 14,2 13,1 10,5 18,5 16,8 4 2 5 3 SSE 1015,4 15 8 0,0
19.07.2019 06:00:00 14,4 12,4 10,8 18,5 16,8 4 2 11 6 SSW 1015,2 30 0 0,0
19.07.2019 05:00:00 15,0 12,9 13,6 18,5 16,8 8 5 15 8 W 1015,3 36 0 0,0
19.07.2019 04:00:00 15,2 13,0 13,7 18,5 16,8 9 5 15 8 W 1015,3 42 0 0,0
19.07.2019 03:00:00 15,5 13,5 14,1 18,5 16,8 9 5 16 9 W 1015,3 43 0 0,0
19.07.2019 02:00:00 16,3 14,5 15,3 18,5 16,8 12 6 16 9 W 1015,2 39 0 0,0
19.07.2019 01:00:00 16,9 15,4 15,9 18,5 16,8 9 5 15 8 WSW 1014,9 29 0 0,0
19.07.2019 00:00:00 17,3 16,2 16,5 18,4 16,8 9 5 18 10 WSW 1014,6 24 0 0,0
18.07.2019 23:00:00 17,6 16,3 16,9 18,4 16,8 12 6 20 11 SW 1014,6 31 0 0,0
18.07.2019 22:00:00 17,6 16,3 16,9 18,4 16,8 6 4 15 8 SW 1014,1 39 0 0,0
18.07.2019 21:00:00 17,5 16,4 17,4 18,3 16,8 8 4 16 8 SSW 1013,8 34 0 0,2
18.07.2019 20:00:00 17,4 16,1 17,3 18,3 16,8 14 8 26 14 W 1013,9 3,6 0 0,2
18.07.2019 19:00:00 20,2 15,2 21,0 18,3 16,8 16 9 25 13 W 1013,6 44 0 0,0
18.07.2019 18:00:00 20,4 16,6 19,3 18,3 16,8 12 7 24 13 W 1013,3 20 0 0,0
18.07.2019 17:00:00 18,7 16,1 19,4 18,2 16,8 22 12 36 19 W 1013,7 7 0 0,0
18.07.2019 16:00:00 22,6 14,2 26,2 18,2 16,8 18 10 36 20 W 1013,3 20 0 0,0
18.07.2019 15:00:00 23,7 13,3 27,1 18,2 16,8 18 10 35 19 W 1013,0 20 0 0,0
18.07.2019 14:00:00 23,5 10,9 28,7 18,2 16,8 20 11 37 20 W 1013,0 25 34 0,0
18.07.2019 13:00:00 24,1 10,4 33,0 18,2 16,8 16 9 29 16 SW 1013,0 17 60 0,0
18.07.2019 12:00:00 21,7 12,3 23,3 18,3 16,8 13 7 29 16 WSW 1013,1 17 43 0,0
18.07.2019 11:00:00 19,6 11,4 23,4 18,3 16,8 20 11 26 14 W 1013,6 39 7 0,0
18.07.2019 10:00:00 18,7 13,1 21,2 18,3 16,8 14 8 21 11 WSW 1013,4 17 32 0,0
18.07.2019 09:00:00 16,8 13,5 18,1 18,4 16,8 10 5 16 9 W 1013,5 9 8 0,0
18.07.2019 08:00:00 15,9 13,0 13,7 18,4 16,8 7 4 15 8 W 1013,4 9 42 0,0
18.07.2019 07:00:00 13,5 11,4 8,9 18,4 16,8 0 0 4 2 N 1013,4 14 9 0,0
18.07.2019 06:00:00 12,2 9,2 7,6 18,4 16,8 4 2 7 4 WNW 1013,4 19 0 0,0
18.07.2019 05:00:00 11,6 7,7 7,8 18,5 16,8 7 4 12 6 NW 1013,5 34 0 0,0
18.07.2019 04:00:00 12,6 8,3 8,0 18,5 16,8 12 6 19 10 NW 1013,7 41 0 0,0
18.07.2019 03:00:00 13,3 7,7 8,1 18,4 16,8 9 5 11 6 NW 1014,0 60 0 0,0
18.07.2019 02:00:00 14,9 9,0 11,7 18,4 16,8 8 4 10 5 WNW 1013,8 60 0 0,0
18.07.2019 01:00:00 15,8 8,3 10,7 18,4 16,8 5 3 8 5 WNW 1013,8 59 0 0,0
18.07.2019 00:00:00 16,7 8,9 12,7 18,3 16,8 5 3 13 7 N 1013,4 59 0 0,0
17.07.2019 23:00:00 17,3 9,2 13,3 18,3 16,8 9 5 14 7 NNW 1013,7 52 0 0,0
17.07.2019 22:00:00 20,4 9,9 17,3 18,2 16,8 11 6 23 13 NNW 1013,5 23 0 0,0
17.07.2019 21:00:00 22,1 10,3 20,2 18,1 16,8 16 8 34 18 NW 1013,2 36 0 0,0
17.07.2019 20:00:00 23,9 13,1 25,1 18,0 16,8 26 14 36 19 NW 1013,0 31 11 0,0
17.07.2019 19:00:00 25,0 12,9 26,4 18,0 16,8 24 13 34 19 WNW 1012,6 32 8 0,0
17.07.2019 18:00:00 28,1 9,9 34,6 17,9 16,8 11 6 22 12 NW 1012,4 20 46 0,0
17.07.2019 17:00:00 27,9 8,2 35,8 17,9 16,8 9 5 24 13 W 1012,9 35 56 0,0
17.07.2019 16:00:00 28,0 9,3 37,9 17,8 16,8 8 5 21 11 S 1013,3 19 60 0,0
17.07.2019 15:00:00 27,4 8,8 38,2 17,8 16,8 11 6 20 11 WSW 1013,8 17 60 0,0
17.07.2019 14:00:00 26,3 11,6 38,4 17,8 16,8 8 4 19 10 SE 1014,2 20 60 0,0
17.07.2019 13:00:00 25,4 11,2 36,4 17,8 16,8 5 3 14 8 NW 1014,9 20 60 0,0
17.07.2019 12:00:00 24,3 10,2 32,6 17,9 16,8 6 3 14 8 SSE 1015,3 25 60 0,0
17.07.2019 11:00:00 22,8 11,5 26,9 17,9 16,8 7 4 14 7 ESE 1015,9 18 60 0,0
17.07.2019 10:00:00 20,5 11,9 24,0 18,0 16,8 8 5 12 7 SE 1016,3 21 60 0,0
17.07.2019 09:00:00 18,0 11,3 16,7 18,0 16,8 3 2 6 3 SE 1016,4 23 60 0,0
17.07.2019 08:00:00 13,0 10,9 8,2 18,1 16,8 0 0 6 3 N 1016,5 20 60 0,0
17.07.2019 07:00:00 9,1 8,2 4,6 18,1 16,8 3 2 5 3 NW 1016,8 17 10 0,0
17.07.2019 06:00:00 8,4 6,2 4,6 18,1 16,8 0 0 4 2 N 1016,9 17 0 0,0
17.07.2019 05:00:00 9,2 7,3 5,6 18,2 16,8 0 0 8 5 N 1016,9 23 0 0,0
17.07.2019 04:00:00 9,5 7,4 5,7 18,2 16,8 8 4 9 5 WNW 1017,1 24 0 0,0

tt = Température de l'air
td = dewpoint
tt 5cm = Température de l'air 5cm
tt -20cm = Température de l'air -20cm
tt -100cm = Température de l'air -100cm
ff = Vitesse du vent
fx = gusts
dd = Direction du vent
ppp = reduced air pressure
vv = visibility
sd = Ensoleillement
rr = Quantités de précipitations

stations d'obs. à proximité